TimeEST,TemperatureF,Dew PointF,Humidity,Sea Level PressureIn,VisibilityMPH,Wind Direction,Wind SpeedMPH,Gust SpeedMPH,PrecipitationIn,Events,Conditions,WindDirDegrees,DateUTC
12:53 AM,28.0,23.0,81,30.43,10.0,SE,8.1,-,N/A,,Clear,140,2013-11-20 05:53:00
1:53 AM,28.0,23.0,81,30.44,10.0,SE,6.9,-,N/A,,Clear,140,2013-11-20 06:53:00
2:53 AM,28.0,23.0,81,30.44,10.0,SSE,6.9,-,N/A,,Clear,150,2013-11-20 07:53:00
3:53 AM,28.0,23.0,81,30.45,10.0,SSE,5.8,-,N/A,,Clear,150,2013-11-20 08:53:00
4:53 AM,27.0,23.0,85,30.45,10.0,SSE,5.8,-,N/A,,Clear,150,2013-11-20 09:53:00
5:53 AM,27.0,23.0,85,30.45,10.0,SE,6.9,-,N/A,,Clear,140,2013-11-20 10:53:00
6:53 AM,26.1,23.0,88,30.45,10.0,SE,6.9,-,N/A,,Clear,140,2013-11-20 11:53:00
7:53 AM,28.9,23.0,78,30.45,10.0,SE,6.9,-,N/A,,Clear,140,2013-11-20 12:53:00
8:53 AM,30.9,25.0,79,30.45,10.0,ESE,9.2,-,N/A,,Clear,120,2013-11-20 13:53:00
9:53 AM,34.0,28.0,79,30.44,10.0,SE,11.5,-,N/A,,Clear,130,2013-11-20 14:53:00
10:53 AM,37.0,28.9,73,30.43,10.0,SE,11.5,-,N/A,,Clear,140,2013-11-20 15:53:00
11:53 AM,39.9,30.0,68,30.39,10.0,SSE,13.8,-,N/A,,Clear,150,2013-11-20 16:53:00
12:53 PM,42.1,28.9,60,30.37,10.0,SSE,8.1,-,N/A,,Clear,160,2013-11-20 17:53:00
1:53 PM,45.0,26.1,48,30.35,10.0,South,13.8,-,N/A,,Clear,170,2013-11-20 18:53:00
2:53 PM,46.0,24.1,42,30.31,10.0,SSE,13.8,-,N/A,,Clear,150,2013-11-20 19:53:00
3:53 PM,45.0,26.1,48,30.29,10.0,SE,12.7,-,N/A,,Clear,130,2013-11-20 20:53:00
4:53 PM,41.0,26.1,55,30.28,10.0,ESE,8.1,-,N/A,,Clear,110,2013-11-20 21:53:00
5:53 PM,37.0,26.1,65,30.28,10.0,East,10.4,-,N/A,,Clear,100,2013-11-20 22:53:00
6:53 PM,39.0,24.1,55,30.28,10.0,SE,10.4,-,N/A,,Clear,130,2013-11-20 23:53:00
7:53 PM,37.0,26.1,65,30.28,10.0,SE,9.2,-,N/A,,Clear,140,2013-11-21 00:53:00
8:53 PM,35.1,27.0,72,30.28,10.0,SE,6.9,-,N/A,,Clear,140,2013-11-21 01:53:00
9:53 PM,36.0,28.0,73,30.27,10.0,SE,6.9,-,N/A,,Clear,130,2013-11-21 02:53:00
10:53 PM,37.0,28.9,73,30.25,10.0,ESE,5.8,-,N/A,,Clear,110,2013-11-21 03:53:00
11:53 PM,39.0,28.0,65,30.27,10.0,SSE,8.1,-,N/A,,Mostly Cloudy,160,2013-11-21 04:53:00